This is the latest recevied weather packets stored in our database for station/object N0ZJT. If no packets are shown the sender has not sent any weather packets the latest 10 day(s).
| Time | Temp. | Humidity | Pressure | Rain* | Wind** | Luminosity | Snow |
|---|---|---|---|---|---|---|---|
| 1777091330 | 11.11° C | 69% | 973.9 hPa | 0 mm | - | - | - |
| 1777090490 | 11.67° C | 68% | 973.7 hPa | 0 mm | - | - | - |
| 1777089530 | 11.67° C | 67% | 973.8 hPa | 0 mm | - | - | - |
| 1777088690 | 11.67° C | 66% | 973.8 hPa | 0 mm | - | - | - |
| 1777087730 | 12.22° C | 66% | 973.9 hPa | 0 mm | - | - | - |
| 1777086890 | 12.22° C | 66% | 973.8 hPa | 0 mm | - | - | - |
| 1777085930 | 12.78° C | 65% | 973.7 hPa | 0 mm | - | - | - |
| 1777085090 | 13.33° C | 63% | 973.5 hPa | 0 mm | - | - | - |
| 1777084130 | 13.89° C | 60% | 973.3 hPa | 0 mm | - | - | - |
| 1777083290 | 13.89° C | 60% | 973 hPa | 0 mm | - | - | - |
| 1777082330 | 14.44° C | 59% | 972.9 hPa | 0 mm | - | - | - |
| 1777081490 | 14.44° C | 59% | 972.6 hPa | 0 mm | - | - | - |
| 1777080530 | 15° C | 58% | 972.6 hPa | 0 mm | - | - | - |
| 1777079690 | 15° C | 57% | 972.5 hPa | 0 mm | - | - | - |
| 1777078730 | 15.56° C | 55% | 972.5 hPa | 0 mm | - | - | - |
| 1777077890 | 16.11° C | 53% | 972.4 hPa | 0 mm | - | - | - |
| 1777076930 | 16.11° C | 51% | 972.3 hPa | 0 mm | - | - | - |
| 1777076090 | 16.67° C | 49% | 972.3 hPa | 0 mm | - | - | - |
| 1777075130 | 16.67° C | 47% | 972.1 hPa | 0 mm | - | - | - |
| 1777074290 | 17.22° C | 47% | 972 hPa | 0 mm | - | - | - |
| 1777073330 | 17.78° C | 46% | 972.2 hPa | 0 mm | - | - | - |
| 1777072490 | 18.33° C | 45% | 972.1 hPa | 0 mm | - | - | - |
| 1777071530 | 18.89° C | 44% | 972 hPa | 0 mm | - | - | - |
| 1777070690 | 18.89° C | 46% | 971.7 hPa | 0 mm | - | - | - |
| 1777069730 | 18.89° C | 45% | 971.9 hPa | 0 mm | - | - | - |
* Rain latest hour (hover to see other rain measurements)
** Current wind speed in m/s (hover to see current wind gust speed)